Snowfall_Accumulation
0.0 0.0 0.0 0.0 0.0 0.0 0.0 0.0 0.0 0.0 0.0 0.0 0.0 0.0 0.0 0.0 0.0 0.0 0.0 nan nan nan nan nan nan nan nan nan nan nan nan nan nan nan nan nan nan nan
0.0 0.0 0.0 0.0 0.0 0.0 0.0 0.0 0.0 0.0 0.0 0.0 0.0 0.0 0.0 0.0 0.0 0.0 0.0 nan nan nan nan nan nan nan nan nan nan nan nan nan nan nan nan nan nan nan
0.0 0.0 0.0 0.0 0.0 0.0 0.0 0.0 0.0 0.0 0.0 0.0 0.0 0.0 0.0 0.0 0.0 0.0 0.0 0.0 0.0 nan nan nan nan nan nan nan nan nan nan nan nan nan nan nan nan nan
0.0 0.0 0.0 0.0 0.0 0.0 0.0 0.0 0.0 0.0 0.0 0.1 0.0 0.0 0.0 0.0 0.0 0.0 0.0 0.0 0.0 nan nan nan nan nan nan nan nan nan nan nan nan nan nan nan nan nan
0.0 0.0 0.0 0.0 0.0 0.0 0.0 0.0 0.0 0.0 0.0 0.0 0.0 0.0 0.0 0.0 0.0 0.0 0.0 0.0 0.0 nan nan nan nan nan nan nan nan nan nan nan nan nan nan nan nan nan
0.0 0.0 0.0 0.0 0.0 0.0 0.0 0.0 0.0 0.0 0.0 0.0 0.1 0.8 0.2 0.0 0.2 0.0 0.0 0.0 0.0 0.0 nan nan nan nan nan nan nan nan nan nan nan nan nan nan nan nan
0.0 0.0 0.0 nan nan nan 0.0 0.0 0.0 0.0 0.3 2.4 1.0 0.4 1.1 0.0 0.0 0.0 0.0 0.0 0.0 0.0 0.0 0.0 0.0 0.0 0.0 nan nan nan nan nan nan nan nan nan nan nan
0.0 0.0 0.0 0.0 0.0 nan nan nan nan 0.1 1.0 1.6 3.0 0.1 0.0 0.0 0.0 0.0 0.7 0.8 1.2 0.0 0.0 0.1 0.0 0.0 0.0 0.0 nan nan nan nan nan nan nan nan nan nan
0.0 0.0 0.0 0.0 nan 0.0 nan nan nan nan nan 0.0 0.0 0.0 0.0 0.0 1.0 1.2 0.4 0.8 1.0 0.0 0.0 0.2 0.0 0.0 0.0 0.0 nan nan nan nan nan nan nan nan nan nan
0.0 0.0 0.0 0.0 0.0 0.0 0.0 0.5 0.3 0.0 0.0 0.0 0.0 0.0 0.2 0.1 0.2 0.3 1.4 0.8 0.0 0.0 0.0 3.0 0.0 0.0 0.0 0.0 nan nan nan nan nan nan nan nan nan nan
0.0 0.0 0.0 0.0 nan nan 0.2 0.5 0.0 0.0 nan nan nan nan nan nan nan 1.2 1.7 3.0 0.9 0.2 0.1 0.3 0.3 0.5 0.5 0.2 0.0 nan nan nan nan nan nan nan nan nan
0.0 0.0 nan 0.0 nan nan 0.0 0.0 0.1 0.0 0.4 0.1 0.0 0.0 nan nan nan 0.0 3.3 9.7 4.1 2.8 0.5 5.4 1.5 1.8 5.4 0.6 0.5 0.2 0.0 nan nan nan nan nan nan 0.0
0.1 0.0 0.0 nan nan nan nan 0.0 0.0 0.1 0.0 0.0 0.0 0.0 0.0 0.0 0.0 0.1 0.7 7.3 10.7 6.5 0.7 4.9 7.3 3.0 4.0 3.5 0.9 0.9 0.5 0.2 0.1 0.0 nan nan nan 0.1
0.0 0.0 0.0 nan nan nan nan nan nan nan 0.0 0.0 0.4 0.6 1.1 1.5 1.2 0.8 0.2 1.0 1.6 6.0 2.0 4.4 21.7 9.3 11.8 5.4 3.6 2.0 1.5 0.9 1.1 0.5 0.4 nan nan nan
0.0 0.0 nan nan nan nan nan nan nan 0.0 0.3 1.7 1.3 1.9 2.2 2.2 3.3 3.9 2.7 2.5 4.9 3.2 4.2 5.9 14.3 8.6 9.4 9.9 7.3 3.5 4.6 2.1 1.5 2.7 1.6 1.2 0.9 0.7
nan 0.5 nan 0.0 nan nan 0.0 0.0 0.0 0.1 1.7 3.5 2.9 1.7 2.5 5.7 5.9 5.9 9.3 8.4 10.5 7.0 3.9 5.3 7.1 8.6 10.3 4.5 7.9 4.8 2.6 10.6 3.1 2.9 2.9 1.3 0.9 0.3
nan 0.0 0.0 0.0 0.0 0.0 0.0 0.0 0.0 0.2 2.3 2.1 3.2 3.3 3.6 5.5 6.6 6.8 9.6 9.5 11.4 9.4 7.8 4.9 2.4 2.8 3.3 5.8 7.4 4.1 5.5 4.4 3.0 5.7 3.1 2.0 1.6 0.7
0.0 0.0 0.0 0.4 0.5 0.1 0.2 0.3 0.3 1.4 2.2 3.4 3.7 4.3 7.3 8.6 10.3 10.7 11.2 10.4 11.0 7.6 8.2 7.3 7.1 8.3 5.8 3.5 6.0 7.4 3.8 4.5 3.9 3.6 2.3 2.0 1.8 1.0
0.0 0.9 0.9 1.0 1.1 1.3 1.7 2.8 4.9 2.8 4.3 7.0 7.1 8.3 9.8 10.0 11.3 11.0 10.5 7.9 6.9 6.8 7.4 8.9 11.3 12.5 11.6 9.6 2.8 nan 5.9 4.4 3.1 2.5 1.7 1.8 2.4 1.4
1.0 1.5 1.8 1.5 1.6 2.6 3.3 5.4 6.3 5.6 7.0 8.6 9.3 10.2 12.0 13.5 13.3 12.2 8.8 9.3 6.0 7.2 10.1 10.8 13.8 17.4 18.8 17.2 11.5 7.4 nan 4.1 3.1 3.4 3.5 1.1 0.8 nan
1.0 1.4 1.1 1.7 2.5 3.5 4.7 6.7 7.1 10.9 13.6 14.8 11.6 12.1 11.8 13.1 10.7 8.0 6.3 3.9 nan 7.8 10.5 9.5 12.0 nan 14.7 8.2 7.5 3.6 3.6 nan 0.8 3.8 3.0 1.9 2.7 1.4
0.8 1.4 1.4 2.1 2.9 4.7 7.5 8.8 10.1 10.0 11.8 11.5 11.4 12.2 10.7 9.3 9.2 5.7 4.5 7.4 4.9 7.0 10.3 11.2 8.0 9.7 12.3 10.6 10.1 4.8 4.5 2.1 nan nan nan nan 6.2 11.0
1.6 1.5 1.9 2.9 4.0 6.0 7.5 9.4 11.0 11.6 11.6 13.4 12.4 10.2 9.0 9.1 4.9 4.7 4.5 3.5 5.3 6.6 6.4 7.0 6.6 7.4 8.2 8.9 10.9 6.1 3.9 4.3 2.7 3.3 3.8 nan nan nan
Water_Equivalent
0.00 0.00 0.00 0.00 0.00 0.00 0.00 0.00 0.00 0.00 0.00 0.00 0.00 0.00 0.00 0.00 0.00 0.00 0.00 nan nan nan nan nan nan nan nan nan nan nan nan nan nan nan nan nan nan nan
0.00 0.00 0.00 0.00 0.00 0.00 0.00 0.00 0.00 0.00 0.00 0.00 0.00 0.00 0.00 0.00 0.00 0.00 0.00 nan nan nan nan nan nan nan nan nan nan nan nan nan nan nan nan nan nan nan
0.00 0.00 0.00 0.00 0.00 0.00 0.00 0.00 0.00 0.00 0.00 0.00 0.00 0.00 0.00 0.00 0.00 0.00 0.00 0.00 0.00 nan nan nan nan nan nan nan nan nan nan nan nan nan nan nan nan nan
0.00 0.00 0.00 0.00 0.00 0.00 0.00 0.00 0.00 0.00 0.00 0.02 0.00 0.00 0.00 0.00 0.00 0.00 0.00 0.00 0.00 nan nan nan nan nan nan nan nan nan nan nan nan nan nan nan nan nan
0.00 0.00 0.00 0.00 0.00 0.00 0.00 0.00 0.00 0.00 0.00 0.00 0.00 0.00 0.00 0.00 0.00 0.00 0.00 0.00 0.00 nan nan nan nan nan nan nan nan nan nan nan nan nan nan nan nan nan
0.00 0.00 0.00 0.00 0.00 0.00 0.00 0.00 0.00 0.00 0.00 0.00 0.02 0.14 0.03 0.00 0.03 0.01 0.00 0.00 0.00 0.00 nan nan nan nan nan nan nan nan nan nan nan nan nan nan nan nan
0.00 0.00 0.00 nan nan nan 0.00 0.00 0.00 0.00 0.06 0.40 0.16 0.06 0.19 0.01 0.00 0.00 0.00 0.00 0.00 0.00 0.00 0.00 0.00 0.00 0.00 nan nan nan nan nan nan nan nan nan nan nan
0.00 0.00 0.00 0.00 0.00 nan nan nan nan 0.01 0.16 0.27 0.48 0.01 0.00 0.00 0.00 0.00 0.10 0.11 0.15 0.00 0.00 0.01 0.00 0.00 0.00 0.00 nan nan nan nan nan nan nan nan nan nan
0.00 0.00 0.00 0.00 nan 0.00 nan nan nan nan nan 0.00 0.00 0.00 0.01 0.00 0.15 0.18 0.06 0.12 0.14 0.00 0.00 0.02 0.00 0.00 0.00 0.00 nan nan nan nan nan nan nan nan nan nan
0.00 0.00 0.00 0.00 0.00 0.00 0.00 0.10 0.05 0.01 0.00 0.00 0.00 0.00 0.04 0.01 0.03 0.05 0.20 0.11 0.01 0.00 0.00 0.43 0.01 0.01 0.00 0.00 nan nan nan nan nan nan nan nan nan nan
0.00 0.00 0.00 0.00 nan nan 0.03 0.09 0.00 0.00 nan nan nan nan nan nan nan 0.21 0.31 0.45 0.16 0.06 0.04 0.07 0.08 0.12 0.13 0.05 0.00 nan nan nan nan nan nan nan nan nan
0.00 0.00 nan 0.00 nan nan 0.00 0.00 0.02 0.00 0.06 0.02 0.00 0.00 nan nan nan 0.00 0.52 1.27 0.67 0.41 0.13 0.70 0.27 0.30 0.72 0.16 0.14 0.05 0.00 nan nan nan nan nan nan 0.00
0.02 0.00 0.00 nan nan nan nan 0.00 0.00 0.01 0.01 0.00 0.00 0.00 0.00 0.02 0.01 0.03 0.12 1.01 1.40 0.94 0.17 0.75 1.14 0.51 0.71 0.56 0.21 0.23 0.14 0.04 0.01 0.01 nan nan nan 0.02
0.00 0.00 0.00 nan nan nan nan nan nan nan 0.00 0.01 0.11 0.21 0.33 0.40 0.37 0.24 0.06 0.19 0.29 0.81 0.31 0.74 2.83 1.29 1.53 0.75 0.52 0.40 0.30 0.21 0.20 0.09 0.08 nan nan nan
0.00 0.00 nan nan nan nan nan nan nan 0.00 0.06 0.27 0.30 0.52 0.56 0.55 0.68 0.69 0.50 0.47 0.90 0.62 0.77 1.08 1.98 1.21 1.25 1.22 0.87 0.50 0.72 0.44 0.34 0.50 0.30 0.20 0.16 0.13
nan 0.10 nan 0.00 nan nan 0.00 0.00 0.00 0.02 0.22 0.42 0.40 0.32 0.47 0.91 0.90 0.92 1.35 1.32 1.45 1.07 0.70 0.90 1.05 1.13 1.29 0.64 1.02 0.63 0.44 1.40 0.70 0.71 0.70 0.29 0.18 0.07
nan 0.00 0.00 0.00 0.00 0.00 0.00 0.00 0.00 0.02 0.32 0.31 0.46 0.50 0.60 0.87 0.93 1.02 1.41 1.39 1.41 1.16 0.95 0.74 0.39 0.47 0.55 0.80 0.92 0.67 0.91 0.77 0.74 1.34 0.81 0.52 0.43 0.20
0.00 0.00 0.01 0.08 0.09 0.02 0.03 0.04 0.05 0.26 0.34 0.56 0.63 0.71 1.02 1.17 1.37 1.54 1.58 1.32 1.31 0.92 0.97 0.91 0.91 0.95 0.93 0.60 1.00 1.11 0.65 0.75 0.91 0.90 0.63 0.42 0.46 0.25
0.00 0.16 0.15 0.18 0.19 0.22 0.29 0.45 0.69 0.51 0.81 1.15 1.07 1.17 1.28 1.33 1.52 1.43 1.30 0.99 0.84 0.83 0.88 1.08 1.33 1.37 1.26 1.00 0.45 nan 0.92 0.75 0.68 0.57 0.41 0.43 0.59 0.40
0.19 0.26 0.31 0.25 0.27 0.41 0.51 0.80 0.90 0.83 0.99 1.19 1.27 1.38 1.60 1.78 1.69 1.44 1.03 1.02 0.73 0.88 1.11 1.25 1.64 1.98 2.11 1.89 1.25 1.09 nan 0.77 0.55 0.58 0.64 0.24 0.20 nan
0.19 0.26 0.20 0.31 0.42 0.60 0.72 0.92 0.94 1.38 1.79 1.90 1.51 1.66 1.63 1.66 1.26 0.94 0.74 0.46 nan 0.92 1.15 1.04 1.45 nan 2.06 1.12 0.93 0.52 0.73 nan 0.18 0.65 0.60 0.35 0.45 0.29
0.14 0.23 0.24 0.39 0.51 0.76 1.09 1.25 1.45 1.50 1.55 1.45 1.48 1.59 1.34 1.12 1.02 0.62 0.48 0.83 0.58 0.84 1.13 1.32 1.03 1.29 1.65 1.29 1.11 0.60 0.67 0.45 nan nan nan nan 0.91 1.35
0.26 0.23 0.37 0.54 0.73 0.87 1.09 1.28 1.54 1.54 1.50 1.68 1.56 1.22 1.04 0.99 0.56 0.55 0.53 0.45 0.64 0.73 0.72 0.76 0.83 0.96 1.04 1.15 1.25 0.77 0.48 0.58 0.44 0.57 0.82 nan nan nan
SL_Ratio
nan nan nan nan nan nan nan nan nan nan nan nan nan nan nan nan nan nan nan nan nan nan nan nan nan nan nan nan nan nan nan nan nan nan nan nan nan nan
nan nan nan nan nan nan nan nan nan nan nan nan nan nan nan nan nan nan nan nan nan nan nan nan nan nan nan nan nan nan nan nan nan nan nan nan nan nan
nan nan nan nan nan nan nan nan nan nan nan nan nan nan nan nan nan nan nan nan nan nan nan nan nan nan nan nan nan nan nan nan nan nan nan nan nan nan
nan nan nan nan nan nan nan nan nan nan nan 6.7 nan nan nan nan nan nan nan nan nan nan nan nan nan nan nan nan nan nan nan nan nan nan nan nan nan nan
nan nan nan nan nan nan nan nan nan nan nan nan nan nan nan nan nan nan nan nan nan nan nan nan nan nan nan nan nan nan nan nan nan nan nan nan nan nan
nan nan nan nan nan nan nan nan nan nan nan nan 5.8 5.8 5.8 10.0 5.3 5.2 nan nan nan nan nan nan nan nan nan nan nan nan nan nan nan nan nan nan nan nan
nan nan nan nan nan nan nan nan nan nan 5.6 6.0 6.2 6.1 6.0 5.6 nan nan nan nan nan nan 5.0 nan nan nan nan nan nan nan nan nan nan nan nan nan nan nan
nan nan nan nan nan nan nan nan nan 5.2 6.0 6.1 6.2 6.0 nan nan nan 6.0 6.8 7.1 8.1 nan nan 6.2 nan nan nan nan nan nan nan nan nan nan nan nan nan nan
nan nan nan nan nan nan nan nan nan nan nan 5.9 nan nan 5.3 nan 6.6 7.1 6.7 7.1 7.3 5.0 nan 7.5 nan nan nan nan nan nan nan nan nan nan nan nan nan nan
nan nan nan nan nan nan 4.5 5.3 5.3 5.2 nan nan nan nan 5.6 5.2 6.2 5.9 7.2 7.6 4.7 nan nan 6.9 3.2 3.5 2.5 nan nan nan nan nan nan nan nan nan nan nan
nan nan nan nan nan nan 4.9 5.6 5.0 nan nan nan nan nan nan nan nan 6.0 5.7 6.6 5.2 2.7 2.5 4.8 3.3 4.2 3.8 3.4 nan nan nan nan nan nan nan nan nan nan
nan nan nan nan nan nan nan nan 5.3 nan 6.4 5.8 nan nan nan nan nan 7.5 6.2 7.6 6.1 6.7 3.9 7.7 5.5 5.8 7.5 3.9 3.2 3.1 nan nan nan nan nan nan nan 5.0
4.7 nan nan nan nan nan nan nan 5.0 5.3 5.3 nan nan 3.0 3.0 2.6 2.8 4.3 6.0 7.3 7.6 6.9 4.4 6.5 6.5 5.9 5.6 6.2 4.3 3.6 3.4 3.9 5.5 5.5 nan nan nan 5.1
nan nan nan nan nan nan nan nan nan nan nan 5.7 3.6 3.1 3.5 3.7 3.3 3.5 4.1 5.3 5.6 7.4 6.4 5.9 7.7 7.2 7.7 7.2 6.9 4.9 4.8 4.3 5.2 5.4 5.8 nan nan nan
nan 5.0 nan nan nan nan nan nan nan nan 6.0 6.4 4.3 3.7 3.9 3.9 4.9 5.7 5.4 5.3 5.5 5.2 5.5 5.5 7.2 7.2 7.5 8.1 8.4 6.9 6.4 4.8 4.6 5.3 5.3 5.7 5.5 5.6
nan 5.4 nan nan nan nan nan nan nan 6.2 8.1 8.2 7.3 5.3 5.2 6.2 6.6 6.4 6.9 6.4 7.2 6.5 5.7 5.8 6.7 7.6 8.0 7.0 7.7 7.5 6.0 7.6 4.4 4.1 4.1 4.3 4.7 5.2
nan nan nan nan nan nan nan nan nan 6.6 7.2 6.7 6.9 6.6 6.0 6.3 7.1 6.7 6.8 6.8 8.1 8.1 8.2 6.6 6.3 6.1 6.0 7.2 8.0 6.0 6.0 5.7 4.1 4.2 3.8 3.8 3.8 3.7
5.0 5.0 6.8 5.2 5.5 7.0 7.4 7.4 5.4 5.4 6.4 6.1 5.9 6.1 7.1 7.3 7.5 7.0 7.1 7.9 8.4 8.2 8.5 8.0 7.8 8.7 6.2 5.8 6.0 6.6 5.8 6.0 4.3 3.9 3.6 4.7 4.0 4.1
6.1 5.3 5.8 5.7 5.8 5.8 5.9 6.3 7.1 5.6 5.3 6.0 6.7 7.1 7.7 7.5 7.4 7.7 8.1 8.0 8.3 8.2 8.4 8.2 8.5 9.1 9.2 9.6 6.2 nan 6.5 5.8 4.5 4.4 4.1 4.2 4.0 3.4
5.1 5.6 5.9 5.8 5.9 6.3 6.5 6.7 6.9 6.7 7.0 7.2 7.3 7.4 7.4 7.6 7.9 8.5 8.5 9.1 8.2 8.2 9.1 8.7 8.4 8.8 8.9 9.1 9.2 6.8 nan 5.3 5.7 5.9 5.5 4.4 3.9 nan
5.5 5.5 5.6 5.7 5.9 5.8 6.6 7.3 7.6 7.9 7.6 7.8 7.7 7.3 7.2 7.9 8.5 8.5 8.6 8.4 nan 8.5 9.1 9.2 8.3 nan 7.1 7.3 8.2 6.9 5.0 nan 4.6 5.8 5.0 5.6 6.0 4.9
5.5 6.1 5.8 5.4 5.7 6.3 6.8 7.1 7.0 6.6 7.6 7.9 7.7 7.7 8.0 8.3 9.0 9.3 9.2 8.9 8.4 8.4 9.1 8.5 7.8 7.5 7.5 8.2 9.2 8.1 6.8 4.7 nan nan nan nan 6.9 8.2
6.1 6.4 5.2 5.4 5.6 6.9 6.9 7.3 7.1 7.5 7.8 7.9 8.0 8.3 8.6 9.2 8.8 8.6 8.3 7.9 8.2 9.0 8.9 9.2 8.0 7.7 7.9 7.8 8.7 7.9 8.1 7.3 6.1 5.9 4.7 nan nan nan